QPF
0.01 0.01 0.02 0.04 0.04 0.05 0.05 0.04 0.04 0.05 0.05 0.05 0.03 0.02 0.02 0.02 0.03 0.03 0.03 0.03 0.04 0.03 0.04 0.05 0.04 0.04 0.04 0.05 0.05 0.03 0.02 0.03 0.03 0.01 0.02 0.01 0.01 0.01 0.01 0.01 0.02 0.01 0.02
0.01 0.01 0.02 0.04 0.05 0.05 0.05 0.04 0.03 0.03 0.04 0.05 0.04 0.03 0.02 0.02 0.02 0.03 0.03 0.03 0.04 0.04 0.04 0.05 0.04 0.04 0.03 0.03 0.04 0.03 0.02 0.02 0.01 0.00 0.00 0.01 0.01 0.02 0.02 0.01 0.02 0.02 0.02
0.01 0.01 0.02 0.04 0.05 0.04 0.03 0.03 0.03 0.03 0.04 0.04 0.03 0.03 0.03 0.02 0.02 0.02 0.03 0.02 0.04 0.04 0.05 0.05 0.03 0.03 0.02 0.02 0.02 0.02 0.02 0.01 0.01 0.00 0.00 0.00 0.02 0.04 0.04 0.03 0.03 0.02 0.02
0.00 0.01 0.02 0.04 0.04 0.03 0.02 0.02 0.03 0.03 0.03 0.03 0.04 0.03 0.03 0.02 0.02 0.02 0.02 0.02 0.03 0.04 0.04 0.04 0.03 0.02 0.02 0.02 0.01 0.01 0.01 0.01 0.00 0.00 0.00 0.01 0.01 0.05 0.05 0.04 0.04 0.04 0.03
0.01 0.01 0.02 0.04 0.05 0.03 0.02 0.02 0.03 0.03 0.03 0.03 0.04 0.04 0.03 0.03 0.02 0.02 0.02 0.02 0.03 0.04 0.05 0.04 0.03 0.02 0.02 0.01 0.01 0.01 0.01 0.00 0.00 0.00 0.00 0.00 0.01 0.03 0.02 0.03 0.03 0.03 0.03
0.00 0.01 0.02 0.02 0.03 0.03 0.03 0.04 0.03 0.02 0.03 0.04 0.04 0.05 0.04 0.03 0.03 0.02 0.02 0.02 0.03 0.02 0.03 0.02 0.02 0.02 0.02 0.01 0.01 0.01 0.01 0.01 0.00 0.00 0.00 0.00 0.00 0.02 0.02 0.02 0.02 0.02 0.03
0.00 0.01 0.01 0.01 0.02 0.02 0.03 0.04 0.06 0.03 0.03 0.03 0.03 0.04 0.04 0.04 0.03 0.02 0.02 0.02 0.03 0.03 0.02 0.03 0.01 0.01 0.01 0.01 0.01 0.01 0.01 0.00 0.00 0.00 0.00 0.00 0.01 0.02 0.02 0.02 0.02 0.03 0.03
0.00 0.01 0.01 0.01 0.02 0.02 0.03 0.03 0.06 0.05 0.04 0.04 0.03 0.03 0.03 0.04 0.03 0.02 0.02 0.02 0.03 0.03 0.02 0.03 0.01 0.01 0.01 0.01 0.01 0.01 0.01 0.00 0.00 0.00 0.00 0.00 0.01 0.02 0.02 0.02 0.02 0.02 0.03
0.00 0.00 0.01 0.01 0.01 0.02 0.03 0.04 0.05 0.06 0.05 0.04 0.04 0.02 0.02 0.03 0.04 0.02 0.02 0.02 0.02 0.02 0.02 0.03 0.01 0.01 0.01 0.00 0.00 0.00 0.01 0.00 0.00 0.00 0.00 0.00 0.02 0.02 0.02 0.02 0.02 0.02 0.03
0.00 0.00 0.00 0.01 0.01 0.01 0.02 0.03 0.05 0.07 0.06 0.05 0.04 0.03 0.01 0.02 0.04 0.04 0.02 0.03 0.02 0.02 0.02 0.03 0.02 0.01 0.01 0.00 0.00 0.00 0.01 0.01 0.01 0.00 0.00 0.01 0.03 0.03 0.02 0.02 0.02 0.02 0.02
0.00 0.01 0.01 0.01 0.01 0.01 0.01 0.03 0.04 0.05 0.06 0.06 0.05 0.04 0.02 0.02 0.02 0.04 0.03 0.03 0.03 0.02 0.02 0.03 0.02 0.01 0.01 0.00 0.00 0.00 0.00 0.00 0.01 0.01 0.00 0.01 0.02 0.02 0.02 0.02 0.03 0.02 0.02
0.01 0.01 0.01 0.01 0.02 0.02 0.02 0.02 0.04 0.05 0.04 0.04 0.04 0.03 0.02 0.02 0.02 0.03 0.03 0.03 0.03 0.02 0.02 0.03 0.02 0.01 0.01 0.00 0.00 0.00 0.00 0.00 0.01 0.01 0.01 0.01 0.01 0.01 0.02 0.02 0.03 0.02 0.01
0.00 0.01 0.01 0.01 0.02 0.02 0.03 0.02 0.02 0.03 0.04 0.04 0.03 0.03 0.02 0.02 0.02 0.03 0.03 0.03 0.03 0.03 0.04 0.03 0.01 0.01 0.01 0.00 0.00 0.00 0.00 0.00 0.00 0.01 0.01 0.01 0.01 0.01 0.02 0.02 0.02 0.02 0.02
0.00 0.00 0.01 0.01 0.02 0.02 0.02 0.01 0.02 0.03 0.03 0.03 0.03 0.02 0.02 0.02 0.03 0.03 0.03 0.02 0.02 0.02 0.04 0.04 0.02 0.01 0.01 0.00 0.00 0.00 0.00 0.00 0.00 0.00 0.01 0.01 0.01 0.01 0.01 0.01 0.02 0.02 0.02
0.00 0.00 0.01 0.01 0.02 0.02 0.02 0.02 0.02 0.03 0.03 0.04 0.04 0.02 0.02 0.02 0.03 0.03 0.03 0.02 0.01 0.01 0.01 0.02 0.02 0.01 0.01 0.01 0.00 0.00 0.00 0.00 0.00 0.00 0.01 0.01 0.02 0.01 0.02 0.02 0.02 0.02 0.02
0.00 0.00 0.00 0.01 0.02 0.02 0.02 0.03 0.03 0.03 0.04 0.04 0.03 0.03 0.03 0.03 0.03 0.04 0.03 0.02 0.01 0.01 0.01 0.00 0.01 0.01 0.01 0.01 0.00 0.00 0.00 0.00 0.00 0.00 0.00 0.01 0.01 0.01 0.02 0.03 0.03 0.03 0.03
0.00 0.00 0.00 0.01 0.01 0.02 0.02 0.02 0.02 0.03 0.04 0.04 0.04 0.03 0.03 0.04 0.04 0.04 0.04 0.03 0.02 0.01 0.01 0.00 0.00 0.01 0.01 0.01 0.01 0.00 0.00 0.00 0.00 0.00 0.00 0.00 0.01 0.01 0.01 0.03 0.04 0.03 0.02
0.00 0.00 0.01 0.01 0.01 0.01 0.01 0.02 0.02 0.03 0.04 0.04 0.05 0.05 0.05 0.04 0.05 0.05 0.04 0.04 0.03 0.02 0.01 0.01 0.01 0.01 0.01 0.01 0.01 0.01 0.00 0.00 0.00 0.01 0.00 0.00 0.00 0.00 0.01 0.01 0.02 0.02 0.02
0.00 0.00 0.00 0.01 0.01 0.01 0.01 0.02 0.02 0.02 0.05 0.05 0.04 0.05 0.07 0.06 0.04 0.05 0.05 0.04 0.04 0.03 0.02 0.01 0.01 0.01 0.01 0.01 0.01 0.01 0.01 0.00 0.00 0.00 0.00 0.00 0.00 0.00 0.01 0.01 0.01 0.02 0.02
0.00 0.00 0.00 0.00 0.01 0.01 0.02 0.02 0.02 0.03 0.05 0.06 0.05 0.05 0.06 0.06 0.05 0.05 0.05 0.05 0.04 0.03 0.02 0.02 0.01 0.01 0.01 0.02 0.02 0.02 0.02 0.01 0.01 0.00 0.00 0.00 0.00 0.00 0.00 0.00 0.01 0.01 0.01
0.00 0.00 0.00 0.00 0.01 0.01 0.02 0.02 0.02 0.02 0.04 0.05 0.05 0.05 0.06 0.07 0.06 0.06 0.06 0.05 0.05 0.04 0.02 0.01 0.02 0.01 0.01 0.02 0.03 0.03 0.02 0.02 0.02 0.01 0.01 0.00 0.00 0.00 0.00 0.01 0.01 0.01 0.00
0.01 0.00 0.00 0.00 0.01 0.01 0.01 0.02 0.02 0.02 0.04 0.06 0.06 0.06 0.06 0.08 0.07 0.06 0.07 0.06 0.04 0.04 0.04 0.02 0.02 0.02 0.02 0.02 0.03 0.03 0.03 0.03 0.03 0.01 0.01 0.01 0.00 0.00 0.00 0.00 0.01 0.01 0.00
0.01 0.01 0.01 0.00 0.01 0.01 0.01 0.02 0.02 0.03 0.04 0.05 0.05 0.05 0.05 0.07 0.08 0.07 0.06 0.06 0.05 0.03 0.04 0.04 0.03 0.02 0.02 0.02 0.03 0.04 0.04 0.03 0.04 0.03 0.02 0.01 0.01 0.00 0.00 0.00 0.00 0.00 0.00
0.01 0.01 0.01 0.01 0.01 0.01 0.01 0.02 0.03 0.03 0.03 0.04 0.04 0.04 0.05 0.07 0.08 0.08 0.08 0.07 0.05 0.03 0.03 0.04 0.05 0.04 0.03 0.03 0.02 0.03 0.04 0.04 0.04 0.04 0.04 0.03 0.02 0.01 0.01 0.00 0.00 0.00 0.00
0.01 0.01 0.01 0.01 0.01 0.01 0.01 0.02 0.03 0.02 0.03 0.04 0.05 0.05 0.05 0.08 0.11 0.11 0.10 0.10 0.07 0.04 0.03 0.03 0.05 0.05 0.04 0.03 0.03 0.02 0.03 0.04 0.04 0.04 0.05 0.05 0.04 0.03 0.02 0.01 0.01 0.00 0.00
0.01 0.02 0.02 0.02 0.01 0.01 0.01 0.02 0.02 0.02 0.02 0.04 0.05 0.06 0.07 0.07 0.10 0.14 0.13 0.14 0.12 0.07 0.04 0.04 0.04 0.05 0.06 0.05 0.04 0.03 0.02 0.03 0.04 0.04 0.04 0.05 0.05 0.04 0.03 0.02 0.01 0.01 0.01
MSLP
1025.94 1025.74 1025.41 1025.02 1024.66 1024.37 1024.16 1024.01 1023.89 1023.75 1023.55 1023.27 1022.92 1022.55 1022.19 1021.88 1021.65 1021.50 1021.40 1021.34 1021.26 1021.14 1020.96 1020.74 1020.49 1020.24 1020.01 1019.83 1019.70 1019.62 1019.57 1019.54 1019.51 1019.47 1019.41 1019.35 1019.28 1019.22 1019.17 1019.15 1019.15 1019.17 1019.20
1025.98 1025.75 1025.41 1025.03 1024.69 1024.44 1024.26 1024.16 1024.08 1023.97 1023.80 1023.55 1023.24 1022.90 1022.58 1022.31 1022.11 1021.99 1021.93 1021.88 1021.83 1021.73 1021.57 1021.35 1021.10 1020.83 1020.58 1020.36 1020.19 1020.06 1019.97 1019.90 1019.84 1019.77 1019.71 1019.64 1019.56 1019.49 1019.44 1019.40 1019.38 1019.38 1019.40
1026.14 1025.87 1025.50 1025.12 1024.79 1024.56 1024.42 1024.35 1024.30 1024.23 1024.09 1023.89 1023.62 1023.32 1023.03 1022.78 1022.60 1022.48 1022.41 1022.36 1022.30 1022.19 1022.03 1021.81 1021.56 1021.30 1021.04 1020.81 1020.62 1020.47 1020.35 1020.26 1020.17 1020.09 1020.01 1019.93 1019.84 1019.76 1019.69 1019.63 1019.59 1019.58 1019.59
1026.40 1026.09 1025.70 1025.31 1025.00 1024.78 1024.65 1024.61 1024.58 1024.54 1024.44 1024.28 1024.05 1023.79 1023.52 1023.29 1023.10 1022.96 1022.85 1022.76 1022.65 1022.51 1022.34 1022.12 1021.89 1021.64 1021.41 1021.20 1021.01 1020.86 1020.74 1020.63 1020.53 1020.43 1020.33 1020.22 1020.11 1020.00 1019.91 1019.82 1019.76 1019.74 1019.74
1026.73 1026.40 1026.01 1025.63 1025.32 1025.11 1024.99 1024.95 1024.94 1024.91 1024.84 1024.70 1024.51 1024.28 1024.03 1023.80 1023.59 1023.41 1023.25 1023.09 1022.93 1022.76 1022.56 1022.35 1022.13 1021.92 1021.72 1021.55 1021.40 1021.26 1021.14 1021.03 1020.92 1020.79 1020.66 1020.52 1020.37 1020.23 1020.09 1019.98 1019.90 1019.85 1019.86
1027.10 1026.78 1026.40 1026.04 1025.75 1025.55 1025.44 1025.39 1025.37 1025.34 1025.27 1025.15 1024.98 1024.77 1024.55 1024.31 1024.08 1023.86 1023.65 1023.43 1023.21 1022.99 1022.77 1022.56 1022.37 1022.20 1022.05 1021.92 1021.81 1021.70 1021.60 1021.48 1021.34 1021.19 1021.02 1020.83 1020.63 1020.44 1020.26 1020.10 1019.99 1019.92 1019.92
1027.46 1027.17 1026.84 1026.53 1026.28 1026.10 1025.99 1025.92 1025.88 1025.83 1025.75 1025.63 1025.48 1025.29 1025.08 1024.85 1024.61 1024.36 1024.10 1023.84 1023.58 1023.32 1023.08 1022.88 1022.70 1022.57 1022.46 1022.38 1022.30 1022.21 1022.11 1021.98 1021.81 1021.62 1021.40 1021.16 1020.90 1020.65 1020.41 1020.20 1020.05 1019.96 1019.95
1027.75 1027.53 1027.29 1027.05 1026.86 1026.71 1026.61 1026.53 1026.46 1026.37 1026.27 1026.15 1026.00 1025.83 1025.64 1025.43 1025.20 1024.94 1024.67 1024.38 1024.08 1023.81 1023.56 1023.36 1023.20 1023.09 1023.01 1022.94 1022.88 1022.79 1022.68 1022.52 1022.32 1022.08 1021.81 1021.51 1021.19 1020.87 1020.57 1020.31 1020.11 1019.99 1019.95
1027.94 1027.82 1027.68 1027.55 1027.44 1027.35 1027.26 1027.17 1027.08 1026.96 1026.84 1026.70 1026.55 1026.40 1026.24 1026.06 1025.85 1025.62 1025.35 1025.05 1024.75 1024.47 1024.22 1024.01 1023.86 1023.75 1023.67 1023.60 1023.53 1023.42 1023.28 1023.09 1022.85 1022.56 1022.24 1021.88 1021.51 1021.13 1020.77 1020.45 1020.20 1020.03 1019.96
1028.01 1028.01 1027.99 1027.98 1027.97 1027.94 1027.89 1027.81 1027.70 1027.56 1027.42 1027.27 1027.13 1027.00 1026.88 1026.74 1026.57 1026.36 1026.12 1025.84 1025.55 1025.27 1025.01 1024.80 1024.64 1024.51 1024.41 1024.31 1024.20 1024.05 1023.86 1023.63 1023.35 1023.02 1022.66 1022.26 1021.85 1021.43 1021.02 1020.64 1020.33 1020.10 1019.97
1027.96 1028.07 1028.19 1028.30 1028.39 1028.45 1028.45 1028.39 1028.28 1028.14 1027.98 1027.84 1027.71 1027.61 1027.52 1027.42 1027.29 1027.12 1026.91 1026.66 1026.39 1026.11 1025.86 1025.63 1025.44 1025.28 1025.14 1024.99 1024.82 1024.62 1024.38 1024.10 1023.78 1023.43 1023.05 1022.64 1022.20 1021.75 1021.31 1020.88 1020.51 1020.22 1020.02
1027.80 1028.02 1028.25 1028.48 1028.68 1028.81 1028.87 1028.85 1028.76 1028.63 1028.49 1028.36 1028.25 1028.18 1028.12 1028.05 1027.97 1027.84 1027.66 1027.43 1027.18 1026.91 1026.65 1026.41 1026.19 1025.98 1025.78 1025.56 1025.33 1025.06 1024.77 1024.45 1024.12 1023.76 1023.37 1022.97 1022.54 1022.09 1021.62 1021.17 1020.74 1020.38 1020.10
1027.56 1027.87 1028.20 1028.52 1028.80 1029.01 1029.13 1029.16 1029.10 1029.00 1028.89 1028.78 1028.71 1028.66 1028.63 1028.60 1028.54 1028.44 1028.28 1028.08 1027.84 1027.58 1027.31 1027.04 1026.79 1026.53 1026.27 1025.99 1025.69 1025.37 1025.03 1024.68 1024.33 1023.98 1023.62 1023.24 1022.84 1022.41 1021.95 1021.48 1021.01 1020.59 1020.23
1027.27 1027.64 1028.04 1028.42 1028.77 1029.03 1029.21 1029.28 1029.28 1029.22 1029.15 1029.08 1029.04 1029.02 1029.02 1029.01 1028.97 1028.88 1028.74 1028.55 1028.32 1028.06 1027.78 1027.50 1027.21 1026.91 1026.59 1026.25 1025.90 1025.53 1025.15 1024.79 1024.43 1024.10 1023.77 1023.44 1023.08 1022.69 1022.26 1021.79 1021.30 1020.83 1020.41
1026.97 1027.38 1027.81 1028.23 1028.61 1028.92 1029.13 1029.25 1029.30 1029.29 1029.27 1029.25 1029.25 1029.26 1029.28 1029.28 1029.24 1029.17 1029.03 1028.84 1028.61 1028.35 1028.07 1027.78 1027.46 1027.13 1026.78 1026.39 1025.99 1025.58 1025.18 1024.80 1024.45 1024.14 1023.85 1023.56 1023.26 1022.92 1022.53 1022.09 1021.61 1021.11 1020.64
1026.68 1027.11 1027.56 1027.99 1028.38 1028.70 1028.94 1029.10 1029.19 1029.24 1029.28 1029.30 1029.34 1029.38 1029.41 1029.42 1029.39 1029.31 1029.17 1028.98 1028.76 1028.50 1028.23 1027.93 1027.61 1027.26 1026.88 1026.47 1026.05 1025.61 1025.19 1024.80 1024.45 1024.15 1023.88 1023.64 1023.38 1023.10 1022.76 1022.36 1021.91 1021.42 1020.92
1026.42 1026.86 1027.31 1027.73 1028.11 1028.44 1028.69 1028.88 1029.02 1029.12 1029.21 1029.28 1029.35 1029.42 1029.46 1029.47 1029.44 1029.35 1029.22 1029.04 1028.82 1028.58 1028.32 1028.03 1027.72 1027.38 1027.00 1026.58 1026.14 1025.69 1025.25 1024.84 1024.48 1024.17 1023.91 1023.69 1023.47 1023.23 1022.95 1022.61 1022.20 1021.75 1021.26
1026.18 1026.63 1027.07 1027.48 1027.85 1028.17 1028.44 1028.66 1028.84 1028.99 1029.12 1029.23 1029.33 1029.41 1029.46 1029.48 1029.44 1029.36 1029.23 1029.06 1028.87 1028.65 1028.41 1028.16 1027.88 1027.56 1027.19 1026.79 1026.35 1025.89 1025.43 1024.99 1024.60 1024.27 1023.99 1023.76 1023.55 1023.34 1023.11 1022.83 1022.48 1022.08 1021.63
1025.92 1026.39 1026.83 1027.24 1027.60 1027.93 1028.22 1028.47 1028.68 1028.87 1029.04 1029.18 1029.30 1029.39 1029.45 1029.46 1029.43 1029.36 1029.24 1029.10 1028.94 1028.76 1028.57 1028.36 1028.12 1027.85 1027.52 1027.14 1026.71 1026.25 1025.77 1025.30 1024.87 1024.48 1024.16 1023.89 1023.66 1023.45 1023.25 1023.02 1022.74 1022.40 1022.00
1025.62 1026.11 1026.56 1026.98 1027.36 1027.71 1028.02 1028.30 1028.56 1028.78 1028.97 1029.14 1029.27 1029.36 1029.42 1029.44 1029.41 1029.36 1029.27 1029.17 1029.05 1028.93 1028.80 1028.65 1028.47 1028.25 1027.98 1027.64 1027.24 1026.79 1026.29 1025.79 1025.30 1024.84 1024.44 1024.10 1023.81 1023.58 1023.37 1023.17 1022.94 1022.67 1022.33
1025.24 1025.76 1026.24 1026.68 1027.09 1027.47 1027.82 1028.15 1028.44 1028.70 1028.92 1029.09 1029.22 1029.32 1029.37 1029.39 1029.38 1029.35 1029.31 1029.25 1029.20 1029.14 1029.08 1029.00 1028.90 1028.75 1028.54 1028.26 1027.90 1027.46 1026.96 1026.42 1025.87 1025.33 1024.83 1024.40 1024.03 1023.73 1023.49 1023.28 1023.08 1022.85 1022.57
1024.75 1025.30 1025.81 1026.29 1026.74 1027.18 1027.59 1027.96 1028.30 1028.59 1028.82 1029.00 1029.13 1029.22 1029.27 1029.30 1029.31 1029.32 1029.32 1029.33 1029.34 1029.36 1029.37 1029.37 1029.34 1029.27 1029.13 1028.92 1028.61 1028.20 1027.71 1027.15 1026.54 1025.92 1025.32 1024.77 1024.30 1023.91 1023.60 1023.35 1023.14 1022.93 1022.68
1024.18 1024.74 1025.28 1025.80 1026.30 1026.79 1027.26 1027.70 1028.08 1028.40 1028.65 1028.83 1028.96 1029.04 1029.10 1029.14 1029.18 1029.22 1029.28 1029.36 1029.44 1029.53 1029.62 1029.69 1029.74 1029.74 1029.68 1029.53 1029.28 1028.93 1028.46 1027.89 1027.24 1026.55 1025.86 1025.20 1024.60 1024.10 1023.69 1023.36 1023.11 1022.88 1022.64
1023.54 1024.11 1024.66 1025.20 1025.75 1026.30 1026.83 1027.32 1027.74 1028.09 1028.36 1028.55 1028.68 1028.76 1028.82 1028.89 1028.96 1029.06 1029.18 1029.32 1029.47 1029.62 1029.77 1029.91 1030.02 1030.08 1030.09 1030.01 1029.83 1029.53 1029.10 1028.55 1027.89 1027.16 1026.39 1025.63 1024.92 1024.29 1023.76 1023.34 1023.00 1022.72 1022.45
1022.89 1023.43 1023.97 1024.52 1025.10 1025.69 1026.27 1026.80 1027.27 1027.65 1027.94 1028.14 1028.27 1028.37 1028.46 1028.55 1028.67 1028.82 1029.00 1029.20 1029.40 1029.61 1029.80 1029.98 1030.13 1030.24 1030.30 1030.28 1030.16 1029.93 1029.56 1029.05 1028.41 1027.66 1026.85 1026.02 1025.21 1024.47 1023.82 1023.28 1022.84 1022.47 1022.14
1022.25 1022.74 1023.25 1023.79 1024.38 1024.99 1025.60 1026.17 1026.67 1027.08 1027.39 1027.61 1027.77 1027.89 1028.01 1028.15 1028.33 1028.53 1028.77 1029.01 1029.26 1029.49 1029.71 1029.90 1030.07 1030.20 1030.29 1030.31 1030.25 1030.08 1029.77 1029.32 1028.73 1028.01 1027.19 1026.32 1025.46 1024.63 1023.88 1023.22 1022.66 1022.19 1021.77
Thickness
5663 5665 5668 5671 5673 5675 5677 5678 5680 5681 5683 5685 5686 5688 5689 5690 5691 5692 5693 5694 5694 5695 5696 5696 5697 5697 5698 5698 5698 5697 5698 5698 5699 5699 5699 5700 5700 5701 5701 5701 5701 5701 5701
5660 5663 5665 5668 5670 5672 5673 5675 5676 5678 5679 5681 5682 5684 5685 5686 5687 5688 5689 5690 5690 5691 5692 5692 5692 5693 5693 5693 5693 5693 5694 5694 5694 5695 5696 5696 5696 5697 5697 5697 5698 5698 5698
5658 5660 5662 5665 5667 5668 5670 5671 5673 5674 5676 5677 5678 5680 5681 5682 5683 5684 5685 5685 5686 5687 5687 5688 5688 5688 5688 5688 5689 5689 5689 5690 5690 5691 5692 5692 5693 5693 5694 5694 5694 5694 5694
5654 5656 5658 5661 5662 5664 5666 5667 5668 5670 5671 5672 5674 5675 5676 5677 5678 5679 5680 5681 5681 5682 5682 5683 5683 5683 5684 5684 5684 5685 5685 5686 5686 5687 5688 5688 5689 5690 5690 5691 5691 5691 5691
5650 5652 5654 5656 5657 5659 5661 5662 5664 5665 5667 5668 5669 5671 5672 5673 5674 5674 5675 5676 5677 5677 5678 5678 5678 5678 5679 5679 5680 5681 5681 5681 5682 5683 5684 5685 5685 5686 5687 5687 5687 5687 5688
5645 5646 5648 5650 5652 5653 5655 5657 5658 5660 5661 5662 5664 5665 5666 5667 5668 5669 5670 5671 5672 5672 5673 5673 5674 5674 5674 5675 5676 5676 5677 5677 5678 5679 5679 5680 5682 5683 5683 5683 5684 5684 5684
5639 5640 5642 5644 5646 5647 5649 5651 5652 5654 5655 5657 5658 5660 5661 5662 5663 5664 5665 5666 5666 5667 5668 5669 5669 5669 5670 5670 5671 5671 5672 5672 5673 5674 5675 5676 5678 5679 5679 5680 5680 5680 5681
5632 5633 5635 5637 5638 5640 5642 5644 5646 5647 5649 5650 5652 5653 5654 5655 5657 5658 5659 5660 5661 5662 5663 5663 5664 5664 5665 5666 5666 5667 5667 5668 5668 5669 5670 5672 5673 5675 5675 5676 5676 5676 5677
5625 5626 5628 5629 5631 5633 5635 5637 5639 5641 5642 5643 5645 5646 5647 5649 5650 5651 5652 5654 5655 5656 5657 5658 5659 5659 5660 5661 5661 5662 5662 5663 5664 5665 5666 5667 5668 5670 5671 5672 5672 5672 5673
5617 5618 5620 5622 5624 5626 5628 5629 5631 5633 5635 5636 5638 5639 5640 5642 5643 5645 5646 5647 5649 5650 5651 5652 5653 5654 5654 5655 5656 5657 5657 5658 5659 5660 5661 5662 5664 5666 5667 5667 5668 5668 5668
5609 5610 5612 5614 5616 5617 5620 5622 5623 5625 5627 5629 5630 5632 5633 5635 5636 5638 5639 5640 5642 5643 5644 5645 5646 5647 5648 5649 5650 5651 5652 5653 5654 5655 5656 5658 5659 5661 5662 5663 5663 5664 5664
5600 5601 5603 5605 5607 5609 5611 5613 5615 5617 5619 5620 5622 5624 5625 5627 5629 5630 5632 5633 5634 5635 5637 5638 5639 5640 5641 5642 5643 5645 5646 5647 5648 5649 5651 5653 5654 5656 5657 5658 5659 5659 5659
5592 5593 5594 5596 5598 5601 5603 5605 5607 5609 5610 5612 5614 5616 5617 5619 5620 5622 5624 5625 5626 5628 5629 5630 5631 5632 5634 5635 5636 5638 5639 5640 5642 5643 5645 5647 5649 5650 5652 5653 5653 5654 5654
5583 5584 5586 5588 5590 5592 5594 5596 5598 5600 5601 5603 5605 5607 5609 5610 5611 5613 5615 5616 5618 5619 5620 5621 5623 5624 5626 5628 5629 5631 5632 5634 5635 5637 5639 5641 5643 5644 5646 5647 5648 5649 5649
5575 5576 5578 5580 5581 5583 5585 5587 5589 5591 5593 5594 5595 5598 5599 5601 5602 5604 5605 5607 5608 5610 5611 5613 5614 5616 5618 5620 5621 5623 5625 5627 5628 5630 5632 5634 5636 5637 5639 5641 5642 5643 5644
5567 5567 5569 5571 5572 5574 5576 5578 5580 5582 5584 5585 5586 5589 5590 5591 5593 5594 5596 5598 5599 5600 5602 5603 5605 5607 5609 5611 5613 5615 5617 5619 5621 5623 5625 5627 5628 5630 5632 5633 5635 5636 5637
5558 5558 5559 5561 5562 5564 5566 5568 5571 5573 5574 5576 5577 5579 5581 5582 5583 5585 5587 5588 5589 5591 5592 5593 5595 5597 5600 5602 5604 5607 5609 5611 5613 5615 5617 5619 5620 5622 5624 5626 5627 5629 5630
5548 5549 5550 5552 5553 5555 5556 5558 5560 5562 5564 5565 5567 5569 5571 5572 5573 5575 5576 5578 5579 5581 5582 5583 5585 5587 5589 5592 5595 5598 5600 5602 5604 5607 5609 5611 5612 5614 5615 5617 5619 5620 5622
5540 5540 5541 5542 5543 5545 5546 5547 5549 5552 5553 5555 5557 5559 5560 5562 5563 5564 5565 5567 5568 5570 5571 5573 5574 5576 5578 5581 5585 5589 5591 5593 5596 5598 5600 5602 5604 5606 5607 5609 5610 5611 5613
5531 5531 5531 5532 5533 5535 5536 5537 5539 5541 5542 5544 5546 5547 5549 5550 5552 5553 5554 5556 5557 5559 5560 5561 5563 5565 5567 5570 5574 5578 5581 5584 5587 5589 5591 5593 5595 5597 5598 5600 5601 5603 5604
5522 5522 5522 5523 5524 5524 5525 5526 5528 5530 5532 5532 5534 5536 5537 5539 5540 5541 5542 5544 5546 5547 5548 5550 5551 5553 5555 5558 5561 5566 5571 5575 5578 5580 5581 5583 5585 5587 5589 5590 5592 5593 5595
5512 5512 5513 5513 5514 5514 5515 5516 5517 5519 5520 5522 5523 5524 5526 5528 5529 5530 5531 5532 5534 5535 5536 5538 5539 5540 5542 5545 5548 5552 5557 5562 5566 5570 5571 5573 5575 5577 5578 5580 5582 5583 5585
5502 5503 5505 5505 5505 5505 5505 5505 5506 5506 5508 5509 5510 5512 5514 5515 5517 5518 5519 5521 5523 5524 5525 5526 5527 5529 5530 5532 5535 5538 5542 5547 5550 5556 5559 5561 5564 5566 5567 5569 5571 5573 5574
5493 5494 5495 5495 5495 5495 5494 5494 5494 5494 5495 5496 5497 5498 5500 5502 5505 5507 5508 5509 5511 5512 5513 5514 5516 5517 5519 5520 5522 5525 5529 5532 5534 5541 5546 5549 5551 5554 5556 5558 5560 5562 5563
5484 5483 5484 5484 5484 5484 5483 5482 5482 5481 5483 5483 5484 5485 5487 5490 5493 5495 5496 5497 5499 5501 5502 5503 5504 5506 5508 5510 5511 5512 5515 5518 5521 5524 5531 5534 5538 5541 5544 5546 5548 5550 5552
5474 5473 5473 5473 5474 5473 5472 5471 5470 5470 5470 5470 5471 5472 5475 5478 5480 5482 5484 5485 5487 5489 5491 5492 5493 5495 5497 5499 5500 5502 5504 5506 5509 5511 5514 5519 5523 5528 5531 5534 5537 5539 5540